Regional Weather Roundup
Issued by NWS

Home | Current Version | Previous Version | Graphics & Text | Print | Product List | Glossary On
Versions: 1 2 3 4 5 6 7 8 9 10 11 12 13 14 15 16 17 18 19 20 21 22 23 24 25 26 27 28 29 30 31 32 33 34 35 36 37 38 39 40 41 42 43 44 45 46 47 48 49 50
000
ASUS43 KMKX 252321
RWRWI

WISCONSIN REGIONAL WEATHER ROUNDUP
NATIONAL WEATHER SERVICE MILWAUKEE/SULLIVAN WI
600 PM CDT MON JUL 25 2016

NOTE: "FAIR" INDICATES FEW OR NO CLOUDS BELOW 12,000 FEET WITH NO
SIGNIFICANT WEATHER AND/OR OBSTRUCTIONS TO VISIBILITY.

WIZ001-002-006>008-014>016-023>028-260000-
NORTHWEST WISCONSIN

CITY           SKY/WX    TMP DP  RH WIND       PRES   REMARKS
SUPERIOR ARPT  MOSUNNY   84  62  47 NW8       29.96S HX  85
ASHLAND        SUNNY     83  60  45 W8        29.98F HX  83
HAYWARD        SUNNY     83  59  44 VRB6      30.01F HX  83
SIREN          SUNNY     82  59  44 NW13      30.02S HX  82
CUMBERLAND     SUNNY     79  57  47 W9        30.03S HX  80
RICE LAKE      SUNNY     81  61  50 W8        30.03S HX  82
CHETEK         SUNNY     82  62  50 N5        30.02S HX  83
LADYSMITH      MOSUNNY   81  60  49 W6        30.04S HX  81
EAU CLAIRE     SUNNY     83  59  44 N9        30.01S HX  83
MENOMONIE      SUNNY     85  60  43 NW8       30.02S HX  85
NEW RICHMOND   SUNNY     83  60  45 NW9       30.03S HX  83
OSCEOLA        SUNNY     84  61  46 W6        30.04S HX  84
$$

WIZ003>005-009-010-017-018-260000-
NORTH CENTRAL WISCONSIN

CITY           SKY/WX    TMP DP  RH WIND       PRES   REMARKS
MANITOWISH WTR SUNNY     78  58  49 NW8       30.02S
ARBOR VITAE    SUNNY     80  57  46 N8        30.02S HX  80
WOODRUFF       SUNNY     80  57  46 N8        30.02S HX  80
RHINELANDER    SUNNY     81  56  42 NW10      30.02S HX  81
EAGLE RIVER    SUNNY     78  53  40 NW9       30.01S
LAND O LAKES   SUNNY     79  53  41 NW8G16    30.02S
PHILLIPS       MOSUNNY   78  60  54 W6        30.02S
TOMAHAWK       SUNNY     79  57  45 NW9       30.02S HX  80
MEDFORD        MOSUNNY   79  61  54 NW10      30.03S HX  80
MERRILL        SUNNY     81  59  47 NW8       30.02S HX  81
$$

WIZ029-030-035-036-043>047-260000-
CENTRAL WISCONSIN

CITY           SKY/WX    TMP DP  RH WIND       PRES   REMARKS
WAUSAU         SUNNY     82  56  40 NW13G21   29.99F HX  82
MOSINEE        SUNNY     81  57  44 NW10G18   30.02S HX  81
MARSHFIELD     SUNNY     81  60  48 NW12      30.02S HX  82
STEVENS POINT  MOSUNNY   80  59  48 NW8       30.01S HX  80
WAUPACA        MOSUNNY   85  58  40 NW5       29.99S HX  84
WAUTOMA        MOSUNNY   82  62  50 NW9       29.99F HX  83
WISC RAPIDS    MOSUNNY   83  57  41 NW9       30.02S HX  82
CAMP DOUGLAS   MOSUNNY   82  64  54 NW9       30.00F HX  84
$$

WIZ011>013-019>022-031-037>040-048>050-260000-
NORTHEAST WISCONSIN

CITY           SKY/WX    TMP DP  RH WIND       PRES   REMARKS
ANTIGO         SUNNY     78  58  49 NW10      30.02S
SHAWANO        SUNNY     84  58  41 NW7       29.97S HX  84
OCONTO         SUNNY     83  62  49 NW5       29.95R HX  83
STURGEON BAY   MOSUNNY   82  61  48 NW6       29.96S HX  83
GREEN BAY      MOSUNNY   83  64  52 NW9       29.96F HX  84
MANITOWOC      SUNNY     83  62  49 NW7       29.97S HX  84
APPLETON       MOSUNNY   82  57  42 NW9       29.97F HX  82
CLINTONVILLE   SUNNY     82  54  36 NW7       29.98S HX  81
OSHKOSH        SUNNY     82  61  48 NW8       29.98S HX  83
$$

WIZ032>034-041-042-053>061-260000-
SOUTHWEST WISCONSIN

CITY           SKY/WX    TMP DP  RH WIND       PRES   REMARKS
LA CROSSE      MOSUNNY   85  63  47 NW8       30.01S HX  86
SPARTA         SUNNY     83  63  51 N8        30.02S HX  84
VIROQUA        SUNNY     80  63  55 NW8       30.04S HX  82
BOSCOBEL       SUNNY     85  63  47 NW8       30.01S HX  86
PRAIRIE DU CHI MOSUNNY   81  60  47 N5        30.01S HX  82
PLATTEVILLE    MOSUNNY   82  66  59 N5        30.02F HX  84
$$

WIZ056-057-062-063-064-067-068-260000-
SOUTH CENTRAL WISCONSIN

CITY           SKY/WX    TMP DP  RH WIND       PRES   REMARKS
REEDSBURG      SUNNY     82  64  55 NW10      30.00S HX  83
BARABOO/DELLS  SUNNY     82  58  45 NW8       30.01S HX  82
LONE ROCK      SUNNY     83  63  50 NW8       30.01S HX  84
MINERAL POINT  SUNNY     81  63  54 N5        30.03S HX  82
MADISON        MOSUNNY   84  63  49 NW8       29.99F HX  85
MIDDLETON      SUNNY     82  62  50 N6        30.01S HX  83
WATERTOWN      SUNNY     81  63  54 N6        29.99S HX  82
MONROE         PTSUNNY   82  63  51 N3        30.01S HX  83
JANESVILLE     MOSUNNY   84  59  42 NW9       29.98F HX  84
$$

WIZ051-052-058>065-066-070>072-260000-
SOUTHEAST WISCONSIN

CITY           SKY/WX    TMP DP  RH WIND       PRES   REMARKS
MILWAUKEE      PTSUNNY   80  63  55 E6        29.98S HX  81
WAUKESHA       MOSUNNY   81  61  50 NW14      30.00F HX  81
MILWAUKEE/TIMM SUNNY     84  55  37 W8        29.99S HX  83
RACINE         SUNNY     83  62  49 SE7       30.00S HX  84
BURLINGTON     SUNNY     83  63  49 NW6       29.99S HX  84
KENOSHA        MOSUNNY   84  65  52 SE7       29.99S HX  86
FOND DU LAC    SUNNY     84  62  47 NW8       29.98F HX  85
SHEBOYGAN      SUNNY     83  61  47 NW9       29.98S HX  83
WEST BEND      MOSUNNY   81  61  50 NW7       29.99S HX  81
JUNEAU         SUNNY     81  62  52 NW6       30.01S HX  82
$$

LSZ147-162-260000-
LAKE SUPERIOR

STATION/POSITION TIME  TEMP    WIND        PRES    WAVE
                       AIR SEA DIR/SP/G            HT/PER
                 (UTC) (F)     (DEG/KT/KT) (MB)    (FT/S)
W MID LAKE BUOY  2250   65 60  230/  8/ 10 1013.5F   2/ 4
DEVILS ISLAND    2300   74     230/  9/ 12 1013.9F
SAXON HARBOR     2200   81      40/  3/  4 1015.2S
$$

LMZ867-665-643>646-260000-
LAKE MICHIGAN

STATION/POSITION TIME  TEMP    WIND        PRES    WAVE
                       AIR SEA DIR/SP/G            HT/PER
                 (UTC) (F)     (DEG/KT/KT) (MB)    (FT/S)
CHAMBERS ISLAND  2200   82     320/  4/  6 1013.9R
S GREEN BAY BUOY 2300   78 75  280/  6/  6   N/A
N MID LAKE BUOY  2250   73 71   90/  6/  6 1013.3R   1/ 5
NORTHPORT PIER   2200   81     310/  4/  8 1013.5S
SISTER BAY       2106   79     340/  6/  6   N/A
ALGOMA LAKESHORE 2243          320/ 10/ 12   N/A
KEWAUNEE LAKESHO 2218   83     310/  5/ 10   N/A
SHEBOYGAN LAKESH 2300   82     270/ 13/ 14 1014.7S
PORT WASHINGTON  2200   85     160/  8/ 15 1015.6
ATWATER BUOY     2300   64 55  160/  6/  6 1016.8F
MILWAUKEE LAKESH 2310   69     150/  9/ 10   N/A
S MID LAKE BUOY  2250   76 76  180/  4/  6 1014.7F   1
KENOSHA   LAKESH 2300   74     180/  9/ 11 1014.9S
$$

TC  - TEMPERATURE IN CELSIUS
VSB - VISIBILITY IN STATUTE MILES
WCI - WIND CHILL INDEX
HX  - HEAT INDEX





USA.gov is the U.S. government's official web portal to all federal, state and local government web resources and services.